FW4092 Weather Reports


time (UTC)temp
C
wind
direction
speed
KPH
gust
KPH
rain 1hr
cm
rain 24hr
cm
rain mn
cm
humidity
%
barometer
mb
20200528131119 10 234 0.0 0.0 0.00 0.00 0.00 56 1018.2
20200528130617 9 234 0.0 1.6 0.00 0.00 0.00 57 1018.2
20200528130116 9 234 0.0 1.6 0.00 0.00 0.00 58 1018.2
20200528125617 9 234 0.0 1.6 0.00 0.00 0.00 58 1018.2
20200528125117 9 234 0.0 1.6 0.00 0.00 0.00 59 1018.2
20200528124617 9 234 0.0 1.6 0.00 0.00 0.00 58 1018.2
20200528124113 9 234 0.0 1.6 0.00 0.00 0.00 58 1018.2
20200528123613 9 234 0.0 1.6 0.00 0.00 0.00 58 1018.2
20200528123120 9 234 0.0 1.6 0.00 0.00 0.00 58 1018.3
20200528122616 9 234 0.0 0.0 0.00 0.00 0.00 58 1018.4
20200528122116 9 234 0.0 3.2 0.00 0.00 0.00 58 1018.4
20200528121612 10 234 0.0 3.2 0.00 0.00 0.00 56 1018.4
20200528121106 10 244 0.0 1.6 0.00 0.00 0.00 55 1018.5
20200528120608 10 244 1.6 3.2 0.00 0.00 0.00 55 1018.5
20200528120106 10 244 1.6 4.8 0.00 0.00 0.00 54 1018.4
20200528115607 10 244 1.6 4.8 0.00 0.00 0.00 53 1018.3
20200528115107 10 291 0.0 1.6 0.00 0.00 0.00 52 1018.3
20200528114602 10 291 0.0 0.0 0.00 0.00 0.00 51 1018.2
20200528114103 11 291 0.0 0.0 0.00 0.00 0.00 51 1018.2
20200528113603 11 291 0.0 3.2 0.00 0.00 0.00 49 1018.1
20200528113103 11 291 1.6 3.2 0.00 0.00 0.00 49 1018.2
20200528112602 12 291 0.0 3.2 0.00 0.00 0.00 48 1018.2
20200528112103 12 291 0.0 3.2 0.00 0.00 0.00 45 1018.2
20200528111558 12 291 0.0 1.6 0.00 0.00 0.00 45 1018.3
20200528111058 12 291 0.0 1.6 0.00 0.00 0.00 45 1018.2
20200528110558 12 291 0.0 1.6 0.00 0.00 0.00 45 1018.2
20200528110059 12 291 0.0 1.6 0.00 0.00 0.00 44 1018.2
20200528105558 12 291 0.0 1.6 0.00 0.00 0.00 45 1018.2
20200528105059 12 291 0.0 1.6 0.00 0.00 0.00 45 1018.1
20200528104557 12 291 0.0 1.6 0.00 0.00 0.00 44 1018.3
20200528104054 12 291 0.0 1.6 0.00 0.00 0.00 44 1018.3
20200528103554 12 291 0.0 0.0 0.00 0.00 0.00 43 1018.4
20200528103055 12 291 0.0 0.0 0.00 0.00 0.00 43 1018.4
20200528102555 12 291 0.0 1.6 0.00 0.00 0.00 43 1018.3
20200528102052 12 291 0.0 1.6 0.00 0.00 0.00 43 1018.3
20200528101551 12 291 0.0 1.6 0.00 0.00 0.00 43 1018.3
20200528101048 12 291 0.0 1.6 0.00 0.00 0.00 43 1018.3
20200528100548 12 291 0.0 1.6 0.00 0.00 0.00 43 1018.3
20200528100049 13 291 0.0 1.6 0.00 0.00 0.00 43 1018.4
20200528095548 13 291 0.0 1.6 0.00 0.00 0.00 43 1018.4
20200528095046 13 291 0.0 1.6 0.00 0.00 0.00 42 1018.4
20200528094549 13 291 0.0 1.6 0.00 0.00 0.00 43 1018.4
20200528094039 13 291 0.0 1.6 0.00 0.00 0.00 43 1018.4
20200528093540 13 291 1.6 3.2 0.00 0.00 0.00 43 1018.4
20200528093040 13 291 1.6 3.2 0.00 0.00 0.00 43 1018.3
20200528092541 13 291 0.0 3.2 0.00 0.00 0.00 42 1018.4
20200528092038 13 291 1.6 3.2 0.00 0.00 0.00 42 1018.4
20200528091538 13 291 0.0 3.2 0.00 0.00 0.00 42 1018.4
20200528091034 13 291 1.6 3.2 0.00 0.00 0.00 42 1018.4
20200528090535 13 291 1.6 4.8 0.00 0.00 0.00 42 1018.5
20200528090035 13 291 1.6 4.8 0.00 0.00 0.00 42 1018.4
20200528085532 13 291 1.6 3.2 0.00 0.00 0.00 42 1018.3
20200528085032 13 291 1.6 3.2 0.00 0.00 0.00 41 1018.3
20200528084532 13 291 1.6 3.2 0.00 0.00 0.00 41 1018.3
20200528084028 14 291 1.6 3.2 0.00 0.00 0.00 40 1018.3
20200528083528 14 291 1.6 3.2 0.00 0.00 0.00 40 1018.4
20200528083026 14 291 1.6 3.2 0.00 0.00 0.00 39 1018.4
20200528082526 14 291 1.6 3.2 0.00 0.00 0.00 39 1018.4
20200528082026 14 291 1.6 3.2 0.00 0.00 0.00 39 1018.4
20200528081531 15 291 1.6 4.8 0.00 0.00 0.00 38 1018.4
20200528081024 15 291 1.6 4.8 0.00 0.00 0.00 39 1018.4
20200528080522 15 291 1.6 3.2 0.00 0.00 0.00 38 1018.4
20200528080020 15 291 3.2 6.4 0.00 0.00 0.00 39 1018.4
20200528075520 15 291 3.2 6.4 0.00 0.00 0.00 38 1018.4
20200528075020 15 293 3.2 6.4 0.00 0.00 0.00 38 1018.4
20200528074520 15 290 3.2 6.4 0.00 0.00 0.00 38 1018.4
20200528074018 15 298 3.2 6.4 0.00 0.00 0.00 38 1018.4
20200528073516 15 298 3.2 6.4 0.00 0.00 0.00 38 1018.4
20200528073016 15 294 3.2 6.4 0.00 0.00 0.00 38 1018.4
20200528072516 15 293 3.2 6.4 0.00 0.00 0.00 38 1018.3
20200528072014 15 296 3.2 6.4 0.00 0.00 0.00 38 1018.4
20200528071514 15 292 3.2 6.4 0.00 0.00 0.00 38 1018.4
20200528071008 15 289 3.2 6.4 0.00 0.00 0.00 38 1018.4
20200528070507 15 288 3.2 6.4 0.00 0.00 0.00 37 1018.3
20200528070004 15 295 3.2 8.0 0.00 0.00 0.00 37 1018.3
20200528065504 15 292 3.2 8.0 0.00 0.00 0.00 37 1018.2
20200528065004 15 293 3.2 6.4 0.00 0.00 0.00 37 1018.3
20200528064502 16 302 3.2 6.4 0.00 0.00 0.00 37 1018.3
20200528064002 16 289 3.2 8.0 0.00 0.00 0.00 36 1018.3
20200528063502 16 294 3.2 8.0 0.00 0.00 0.00 36 1018.2
20200528062959 16 303 4.8 8.0 0.00 0.00 0.00 36 1018.2
20200528062457 16 298 4.8 8.0 0.00 0.00 0.00 35 1018.1
20200528061958 17 294 4.8 11.3 0.00 0.00 0.00 35 1018.1
20200528061456 17 292 4.8 11.3 0.00 0.00 0.00 34 1018.1
20200528060956 17 306 4.8 8.0 0.00 0.00 0.00 33 1018.1
20200528060455 18 317 4.8 9.7 0.00 0.00 0.00 32 1018.2
20200528060000 18 323 6.4 14.5 0.00 0.00 0.00 31 1018.2
20200528055504 18 329 6.4 14.5 0.00 0.00 0.00 31 1018.2
20200528054954 18 333 4.8 14.5 0.00 0.00 0.00 32 1018.2
20200528054452 18 311 4.8 12.9 0.00 0.00 0.00 32 1018.2
20200528053953 18 319 4.8 12.9 0.00 0.00 0.00 32 1018.1
20200528053452 18 317 4.8 16.1 0.00 0.00 0.00 31 1018.1
20200528052951 18 321 4.8 16.1 0.00 0.00 0.00 31 1018.1
20200528052452 18 320 4.8 9.7 0.00 0.00 0.00 31 1017.9
20200528051947 18 319 4.8 14.5 0.00 0.00 0.00 31 1017.9
20200528051447 18 336 6.4 14.5 0.00 0.00 0.00 31 1017.8
20200528050947 19 323 4.8 14.5 0.00 0.00 0.00 31 1017.8
20200528050447 19 302 4.8 14.5 0.00 0.00 0.00 32 1017.8
20200528045947 19 346 4.8 14.5 0.00 0.00 0.00 31 1017.8
20200528045447 19 329 4.8 14.5 0.00 0.00 0.00 31 1017.8
20200528044946 20 346 4.8 14.5 0.00 0.00 0.00 31 1017.8
20200528044446 20 338 6.4 14.5 0.00 0.00 0.00 31 1017.8
20200528043945 20 338 6.4 14.5 0.00 0.00 0.00 30 1017.7
20200528043446 20 0 6.4 14.5 0.00 0.00 0.00 30 1017.7
20200528042946 20 343 6.4 16.1 0.00 0.00 0.00 30 1017.7
20200528042446 20 330 8.0 19.3 0.00 0.00 0.00 29 1017.5
20200528041951 20 321 8.0 19.3 0.00 0.00 0.00 29 1017.5
20200528041439 21 344 6.4 16.1 0.00 0.00 0.00 29 1017.5
20200528040939 21 355 6.4 14.5 0.00 0.00 0.00 28 1017.4
20200528040439 21 13 6.4 14.5 0.00 0.00 0.00 29 1017.3
20200528035939 21 12 6.4 14.5 0.00 0.00 0.00 29 1017.2
20200528035438 21 5 8.0 19.3 0.00 0.00 0.00 28 1017.2
20200528034942 21 5 8.0 19.3 0.00 0.00 0.00 28 1017.2
20200528034435 21 313 8.0 16.1 0.00 0.00 0.00 28 1017.2
20200528033935 22 339 8.0 20.9 0.00 0.00 0.00 28 1017.2
20200528033435 22 340 8.0 20.9 0.00 0.00 0.00 27 1017.2
20200528032936 22 344 8.0 24.1 0.00 0.00 0.00 27 1017.2
20200528032435 22 12 8.0 24.1 0.00 0.00 0.00 27 1017.2
20200528031935 23 17 8.0 20.9 0.00 0.00 0.00 27 1017.1
20200528031435 23 343 8.0 20.9 0.00 0.00 0.00 26 1017.2
20200528030930 23 350 8.0 20.9 0.00 0.00 0.00 26 1017.2
20200528030429 23 42 6.4 19.3 0.00 0.00 0.00 26 1017.2
20200528025932 24 316 8.0 20.9 0.00 0.00 0.00 27 1017.1
20200528025429 24 45 9.7 20.9 0.00 0.00 0.00 26 1017.2
20200528024929 24 324 8.0 20.9 0.00 0.00 0.00 26 1017.2
20200528024429 25 340 8.0 17.7 0.00 0.00 0.00 26 1017.2
20200528023925 25 351 8.0 17.7 0.00 0.00 0.00 26 1017.2
20200528023424 25 335 9.7 19.3 0.00 0.00 0.00 26 1017.2
20200528022923 25 22 8.0 19.3 0.00 0.00 0.00 26 1017.0
20200528022423 26 322 8.0 19.3 0.00 0.00 0.00 26 1016.9
20200528021923 26 342 8.0 20.9 0.00 0.00 0.00 26 1016.9
20200528021425 26 30 8.0 20.9 0.00 0.00 0.00 26 1016.9
20200528020917 26 14 8.0 19.3 0.00 0.00 0.00 26 1016.9
20200528020418 26 348 6.4 22.5 0.00 0.00 0.00 25 1016.6
20200528015917 26 28 8.0 22.5 0.00 0.00 0.00 24 1016.6
20200528015417 26 5 8.0 22.5 0.00 0.00 0.00 24 1016.6
20200528014917 26 339 8.0 22.5 0.00 0.00 0.00 22 1016.5
20200528014416 27 59 8.0 17.7 0.00 0.00 0.00 21 1016.6
20200528013911 27 59 6.4 19.3 0.00 0.00 0.00 21 1016.6
20200528013411 27 60 6.4 17.7 0.00 0.00 0.00 20 1016.8
20200528012913 27 64 8.0 20.9 0.00 0.00 0.00 20 1016.8
20200528012411 27 323 8.0 20.9 0.00 0.00 0.00 19 1016.8
20200528011911 27 40 8.0 19.3 0.00 0.00 0.00 19 1016.8
20200528011411 27 5 9.7 22.5 0.00 0.00 0.00 19 1016.8
20200528010905 27 350 9.7 22.5 0.00 0.00 0.00 19 1016.6
20200528010405 27 342 9.7 19.3 0.00 0.00 0.00 18 1016.8
20200528005904 27 329 8.0 19.3 0.00 0.00 0.00 17 1016.9
20200528005405 27 351 8.0 22.5 0.00 0.00 0.00 18 1016.9
20200528004905 27 355 8.0 22.5 0.00 0.00 0.00 18 1016.9
20200528004407 27 345 8.0 24.1 0.00 0.00 0.00 18 1016.9
20200528003858 27 5 9.7 24.1 0.00 0.00 0.00 17 1017.0
20200528003359 27 333 8.0 19.3 0.00 0.00 0.00 18 1017.0
20200528002859 28 350 8.0 19.3 0.00 0.00 0.00 17 1017.0
20200528002359 28 0 6.4 19.3 0.00 0.00 0.00 17 1017.0
20200528001904 28 41 6.4 14.5 0.00 0.00 0.00 17 1017.0
20200528001401 28 22 4.8 12.9 0.00 0.00 0.00 17 1016.9
20200528000900 28 25 6.4 14.5 0.00 0.00 0.00 17 1017.0
20200528000358 28 351 8.0 19.3 0.00 0.00 0.00 18 1016.9
20200527235859 28 342 8.0 20.9 0.00 0.00 0.00 18 1017.0
20200527235354 28 337 6.4 20.9 0.00 0.00 0.00 18 1017.0
20200527234855 28 351 4.8 12.9 0.00 0.00 0.00 18 1016.9
20200527234355 28 344 4.8 12.9 0.00 0.00 0.00 17 1016.9
20200527233855 28 35 4.8 14.5 0.00 0.00 0.00 17 1017.0
20200527233354 28 355 4.8 16.1 0.00 0.00 0.00 18 1017.0
20200527232856 29 342 4.8 16.1 0.00 0.00 0.00 17 1016.9
20200527232350 29 61 3.2 14.5 0.00 0.00 0.00 18 1016.9
20200527231851 29 49 4.8 12.9 0.00 0.00 0.00 19 1016.9
20200527231351 28 58 4.8 12.9 0.00 0.00 0.00 19 1017.0
20200527230850 28 53 3.2 9.7 0.00 0.00 0.00 19 1017.0
20200527230350 28 35 4.8 16.1 0.00 0.00 0.00 20 1017.0
20200527225850 28 14 4.8 16.1 0.00 0.00 0.00 19 1017.0
20200527225348 28 338 3.2 12.9 0.00 0.00 0.00 21 1017.1
20200527224848 28 28 3.2 9.7 0.00 0.00 0.00 20 1017.2
20200527224344 28 66 4.8 14.5 0.00 0.00 0.00 20 1017.3
20200527223845 28 77 4.8 14.5 0.00 0.00 0.00 20 1017.4
20200527223344 28 337 4.8 17.7 0.00 0.00 0.00 21 1017.4
20200527222844 28 77 4.8 17.7 0.00 0.00 0.00 22 1017.4
20200527222345 28 67 3.2 12.9 0.00 0.00 0.00 23 1017.5
20200527221845 28 0 4.8 14.5 0.00 0.00 0.00 23 1017.6
20200527221344 27 350 4.8 14.5 0.00 0.00 0.00 23 1017.6
20200527220838 27 28 4.8 14.5 0.00 0.00 0.00 23 1017.7
20200527220338 27 94 4.8 14.5 0.00 0.00 0.00 24 1017.7
20200527215839 27 0 4.8 14.5 0.00 0.00 0.00 25 1017.8
20200527215338 27 308 4.8 14.5 0.00 0.00 0.00 25 1018.1
20200527214838 27 342 4.8 14.5 0.00 0.00 0.00 26 1018.1
20200527214338 27 47 4.8 12.9 0.00 0.00 0.00 26 1017.9
20200527213837 27 41 4.8 14.5 0.00 0.00 0.00 28 1017.9
20200527213332 27 5 3.2 14.5 0.00 0.00 0.00 27 1018.1
20200527212832 27 27 4.8 14.5 0.00 0.00 0.00 27 1018.1
20200527212339 26 65 4.8 14.5 0.00 0.00 0.00 29 1018.1
20200527211832 26 67 4.8 14.5 0.00 0.00 0.00 27 1018.1
20200527211333 26 76 6.4 14.5 0.00 0.00 0.00 28 1018.2
20200527210832 26 65 6.4 14.5 0.00 0.00 0.00 29 1018.2
20200527210326 26 314 6.4 17.7 0.00 0.00 0.00 30 1018.2
20200527205826 26 333 4.8 17.7 0.00 0.00 0.00 30 1018.2
20200527205327 26 355 6.4 17.7 0.00 0.00 0.00 31 1018.3
20200527204826 26 328 8.0 17.7 0.00 0.00 0.00 32 1018.3
20200527204326 26 321 4.8 16.1 0.00 0.00 0.00 34 1018.4
20200527203828 26 44 6.4 14.5 0.00 0.00 0.00 33 1018.4
20200527203322 26 27 6.4 16.1 0.00 0.00 0.00 34 1018.4
20200527202822 25 28 4.8 16.1 0.00 0.00 0.00 34 1018.3
20200527202322 25 329 4.8 14.5 0.00 0.00 0.00 34 1018.4
20200527201822 25 39 6.4 17.7 0.00 0.00 0.00 35 1018.5
20200527201320 25 339 6.4 17.7 0.00 0.00 0.00 35 1018.5
20200527200820 25 32 6.4 16.1 0.00 0.00 0.00 37 1018.5
20200527200317 25 31 6.4 17.7 0.00 0.00 0.00 36 1018.5
20200527195816 25 315 6.4 17.7 0.00 0.00 0.00 37 1018.5
20200527195316 25 5 6.4 14.5 0.00 0.00 0.00 37 1018.6
20200527194817 25 46 6.4 16.1 0.00 0.00 0.00 37 1018.6
20200527194313 25 306 8.0 17.7 0.00 0.00 0.00 38 1018.6
20200527193813 24 12 8.0 17.7 0.00 0.00 0.00 39 1018.6
20200527193308 24 355 6.4 16.1 0.00 0.00 0.00 38 1018.6
20200527192808 24 325 6.4 19.3 0.00 0.00 0.00 38 1018.6
20200527192309 24 42 6.4 19.3 0.00 0.00 0.00 39 1018.7
20200527191808 24 312 6.4 17.7 0.00 0.00 0.00 38 1018.7
20200527191308 24 338 4.8 14.5 0.00 0.00 0.00 38 1018.7
20200527190810 24 36 4.8 14.5 0.00 0.00 0.00 40 1018.8
20200527190302 24 317 4.8 12.9 0.00 0.00 0.00 38 1018.8
20200527185802 24 54 4.8 12.9 0.00 0.00 0.00 39 1018.8
20200527185301 23 49 4.8 11.3 0.00 0.00 0.00 40 1018.8
20200527184802 23 28 4.8 12.9 0.00 0.00 0.00 39 1018.7
20200527184301 23 67 4.8 12.9 0.00 0.00 0.00 40 1018.9
20200527183801 23 15 4.8 12.9 0.00 0.00 0.00 43 1018.8
20200527183256 22 32 4.8 14.5 0.00 0.00 0.00 42 1018.7
20200527182756 22 338 4.8 14.5 0.00 0.00 0.00 41 1018.8
20200527182256 22 320 6.4 14.5 0.00 0.00 0.00 42 1018.8
20200527181756 22 298 4.8 14.5 0.00 0.00 0.00 42 1018.8
20200527181254 22 339 3.2 8.0 0.00 0.00 0.00 42 1018.9
20200527180753 22 5 6.4 12.9 0.00 0.00 0.00 41 1018.9
20200527180253 22 333 4.8 12.9 0.00 0.00 0.00 41 1018.9
20200527175753 22 355 3.2 9.7 0.00 0.00 0.00 39 1019.0
20200527175254 22 75 3.2 8.0 0.00 0.00 0.00 39 1019.0
20200527174750 22 40 3.2 8.0 0.00 0.00 0.00 38 1019.1
20200527174249 22 103 3.2 8.0 0.00 0.00 0.00 37 1019.0
20200527173753 22 69 3.2 8.0 0.00 0.00 0.00 39 1019.1
20200527173249 22 40 3.2 8.0 0.00 0.00 0.00 39 1019.1
20200527172753 22 51 1.6 6.4 0.00 0.00 0.00 40 1019.1
20200527172250 21 28 1.6 9.7 0.00 0.00 0.00 41 1019.1
20200527171746 21 15 3.2 9.7 0.00 0.00 0.00 44 1019.3
20200527171246 21 86 3.2 8.0 0.00 0.00 0.00 40 1019.3
20200527170745 21 49 3.2 8.0 0.00 0.00 0.00 43 1019.4
20200527170245 20 50 3.2 8.0 0.00 0.00 0.00 44 1019.3
20200527165745 20 47 3.2 8.0 0.00 0.00 0.00 44 1019.4
20200527165245 20 31 1.6 6.4 0.00 0.00 0.00 47 1019.4
20200527164741 20 59 3.2 9.7 0.00 0.00 0.00 48 1019.4
20200527164238 19 19 3.2 9.7 0.00 0.00 0.00 49 1019.5
20200527163738 19 46 3.2 8.0 0.00 0.00 0.00 50 1019.5
20200527163240 19 355 3.2 6.4 0.00 0.00 0.00 50 1019.5
20200527162737 19 51 1.6 6.4 0.00 0.00 0.00 51 1019.6
20200527162235 19 117 3.2 6.4 0.00 0.00 0.00 50 1019.7
20200527161735 19 64 1.6 6.4 0.00 0.00 0.00 50 1019.6
20200527161229 18 98 1.6 4.8 0.00 0.00 0.00 53 1019.6
20200527160727 18 150 1.6 6.4 0.00 0.00 0.00 53 1019.6
20200527160226 18 152 3.2 8.0 0.00 0.00 0.00 55 1019.5
20200527155723 17 174 3.2 8.0 0.00 0.00 0.00 54 1019.3
20200527155222 17 163 3.2 9.7 0.00 0.00 0.00 58 1019.4
20200527154717 17 138 3.2 9.7 0.00 0.00 0.00 59 1019.3
20200527154220 17 101 3.2 11.3 0.00 0.00 0.00 59 1019.1
20200527153719 16 121 3.2 11.3 0.00 0.00 0.00 59 1019.4
20200527153217 16 159 3.2 8.0 0.00 0.00 0.00 62 1019.3
20200527152715 16 114 3.2 8.0 0.00 0.00 0.00 61 1019.3
20200527152215 16 124 3.2 9.7 0.00 0.00 0.00 63 1019.4
20200527151714 16 136 3.2 9.7 0.00 0.00 0.00 65 1019.4
20200527151213 15 144 3.2 8.0 0.00 0.00 0.00 67 1019.4
20200527150711 15 126 3.2 6.4 0.00 0.00 0.00 68 1019.4
20200527150209 14 130 3.2 8.0 0.00 0.00 0.00 70 1019.5
20200527145709 13 149 3.2 8.0 0.00 0.00 0.00 71 1019.4
20200527145209 13 144 3.2 8.0 0.00 0.00 0.00 71 1019.4
20200527144711 13 153 3.2 9.7 0.00 0.00 0.00 73 1019.4
20200527144205 12 129 3.2 9.7 0.00 0.00 0.00 73 1019.4
20200527143705 12 121 3.2 8.0 0.00 0.00 0.00 75 1019.3
20200527143205 12 171 3.2 8.0 0.00 0.00 0.00 76 1019.4
20200527142704 11 129 3.2 9.7 0.00 0.00 0.00 78 1019.3
20200527142203 11 165 3.2 9.7 0.00 0.00 0.00 78 1019.3
20200527141703 11 154 4.8 9.7 0.00 0.00 0.00 79 1019.3
20200527141201 10 144 4.8 9.7 0.00 0.00 0.00 80 1019.3
20200527140659 10 140 3.2 9.7 0.00 0.00 0.00 80 1019.3
20200527140202 10 154 3.2 9.7 0.00 0.00 0.00 81 1019.1
20200527135657 10 136 4.8 11.3 0.00 0.00 0.00 82 1019.3
20200527135157 9 140 4.8 12.9 0.00 0.00 0.00 83 1019.3
20200527134656 9 161 4.8 12.9 0.00 0.00 0.00 84 1019.3
20200527134155 9 175 4.8 11.3 0.00 0.00 0.00 85 1019.1
20200527133655 9 148 4.8 11.3 0.00 0.00 0.00 85 1019.1
20200527133154 8 144 3.2 11.3 0.00 0.00 0.00 86 1019.1
20200527132653 8 150 1.6 6.4 0.00 0.00 0.00 86 1019.1
20200527132151 8 146 3.2 8.0 0.00 0.00 0.00 87 1019.0
20200527131656 8 159 4.8 11.3 0.00 0.00 0.00 88 1018.9